Temperature
20 20 20 19 19 19 18 18 18 18 17 17 17 17 17 18 18 18 18 17 17 17 17 17 17 17 17 17 17 17 17 17 17 17 17 17 17 17 16 16 16 16 16
19 19 19 19 19 19 18 18 17 17 17 17 18 18 18 18 18 18 17 17 17 17 17 17 17 17 17 17 17 17 17 17 17 17 17 17 17 17 17 17 17 16 16
20 20 19 19 19 18 18 18 18 17 17 17 17 17 17 17 17 17 17 17 17 17 17 17 17 17 17 17 17 17 17 17 17 17 17 17 17 17 17 17 17 17 17
20 20 20 19 19 19 18 18 18 17 17 17 17 17 18 17 18 18 17 17 17 17 17 17 17 17 17 17 17 17 17 17 17 17 17 17 17 17 17 17 17 17 17
20 20 20 20 19 19 18 18 18 18 17 17 17 17 17 18 18 17 17 17 17 17 17 17 17 17 17 17 17 17 17 16 16 17 17 17 17 17 17 17 17 17 17
19 19 19 19 19 19 18 18 18 17 17 17 17 17 17 17 17 17 17 17 17 17 17 16 16 16 16 16 16 16 16 16 16 17 17 17 17 17 17 17 17 17 17
19 19 19 19 19 19 18 18 17 17 17 17 17 17 17 17 17 17 17 17 17 17 17 16 16 16 16 16 16 16 16 16 16 16 17 17 17 17 17 17 17 17 17
19 19 19 19 19 18 18 18 18 17 17 17 17 17 17 17 17 17 17 17 17 17 17 16 16 16 16 16 16 16 16 16 16 16 16 16 17 17 17 17 17 17 17
19 19 19 19 19 18 18 18 18 18 17 17 17 17 17 17 17 17 17 17 17 17 16 16 16 16 16 16 16 16 16 16 16 16 16 16 16 16 16 16 16 16 16
19 19 19 19 19 18 18 18 18 18 17 17 17 17 17 17 17 17 17 16 16 17 16 16 16 16 16 16 16 16 16 16 16 16 16 16 16 16 16 16 16 16 16
20 20 19 19 19 18 18 18 18 17 17 17 17 17 17 16 16 16 16 16 16 16 16 16 16 16 16 16 15 15 15 15 15 15 15 15 15 15 15 15 15 15 15
20 19 19 19 19 18 18 18 17 17 17 17 16 16 16 16 16 16 16 16 16 16 16 16 16 16 16 15 15 15 15 15 15 15 15 15 15 15 15 15 15 15 15
19 19 19 19 18 18 18 18 17 17 17 16 16 16 16 16 16 16 16 16 16 16 16 16 15 15 15 15 15 15 15 15 15 15 15 15 14 14 14 14 14 14 14
19 19 19 19 18 18 18 18 17 17 17 17 16 16 16 16 16 16 16 16 16 15 15 15 15 15 15 15 15 15 15 15 15 14 14 14 14 14 14 14 13 13 13
19 19 19 18 18 18 18 17 17 17 16 16 16 16 16 16 16 16 16 15 15 15 15 15 15 15 15 15 15 15 14 14 14 14 13 13 13 13 13 13 13 12 12
18 18 18 18 18 18 18 17 17 17 17 16 16 16 16 16 15 15 15 15 15 15 15 15 15 15 15 15 14 14 14 14 13 13 13 12 12 12 12 12 12 12 11
18 18 18 18 18 18 18 17 17 17 16 16 16 16 16 16 15 15 15 15 15 15 15 15 14 14 14 14 14 13 13 13 12 12 12 11 11 11 11 11 11 10 10
18 18 18 18 18 18 17 17 17 17 16 16 16 16 15 15 15 15 15 15 14 14 14 14 14 14 13 13 13 13 12 12 11 11 11 11 10 10 10 10 9 9 9
18 18 18 18 17 17 17 17 17 16 16 16 16 15 15 15 15 14 14 14 14 14 14 13 13 13 12 12 11 11 11 11 11 10 10 10 9 9 9 9 8 8 8
17 17 17 17 17 17 17 16 16 16 16 15 15 15 15 15 14 14 14 14 13 13 13 12 12 12 11 11 11 10 10 10 10 9 9 9 8 8 8 8 7 7 6
17 16 16 17 17 17 16 16 16 15 15 15 15 15 14 14 14 14 13 13 13 12 12 11 11 11 10 10 10 10 10 10 9 9 8 8 7 7 7 6 6 6 5
16 16 16 16 15 16 15 15 15 15 15 15 14 14 14 13 13 13 12 12 12 11 11 10 10 9 9 9 9 9 9 8 8 8 7 7 6 6 6 6 5 5 5
15 15 15 15 15 15 15 15 14 14 14 14 14 13 13 13 12 12 12 11 11 11 10 10 9 9 8 8 8 8 7 7 7 7 6 6 5 5 5 5 4 4 4
14 14 14 14 14 14 14 14 14 14 14 13 13 12 12 12 11 11 11 10 10 9 9 9 8 8 8 7 7 7 6 6 6 6 5 5 4 4 4 4 3 3 3
13 13 13 13 13 13 13 13 13 13 13 12 12 12 11 11 10 10 9 9 9 9 8 8 8 7 7 6 6 6 6 5 5 5 4 4 4 4 3 3 3 2 2
12 12 12 12 12 12 12 12 12 12 12 12 11 11 10 10 9 9 8 7 7 7 7 7 7 6 6 6 5 5 5 4 4 4 4 3 3 3 3 2 2 2 1
Wind_Speed
6 7 7 9 9 9 10 11 10 9 8 6 6 5 5 4 4 5 8 10 10 10 8 5 5 4 4 4 4 3 3 2 2 3 2 2 1 0 1 2 3 4 6
6 7 7 8 10 10 9 9 9 10 9 8 6 4 4 3 3 3 5 8 10 10 8 6 5 5 4 4 4 3 3 2 2 3 2 1 2 2 1 2 3 4 5
9 9 8 9 9 10 11 10 10 10 9 8 5 5 4 3 2 3 3 5 8 9 8 8 6 5 5 5 4 4 5 3 1 1 3 3 3 1 2 1 2 3 3
7 7 8 8 9 10 10 10 11 11 10 10 9 10 7 6 5 4 4 4 6 8 9 9 7 5 4 4 4 4 3 4 3 1 1 1 2 2 0 2 1 2 4
7 7 7 7 7 8 9 10 10 10 10 10 10 10 7 5 4 4 5 4 4 6 7 8 7 6 4 4 4 4 4 3 4 3 2 2 1 1 2 1 2 1 2
6 5 4 5 4 6 7 8 9 9 9 10 10 10 10 8 8 7 6 5 3 3 5 7 6 6 5 5 4 4 5 4 4 3 3 3 2 2 2 2 1 1 2
6 6 6 6 6 7 8 8 9 9 9 9 9 10 11 10 10 9 8 7 5 4 5 5 5 5 5 5 5 5 5 5 5 4 2 2 2 2 3 2 1 0 1
7 7 7 7 7 7 8 9 9 8 8 8 8 8 9 8 6 7 7 7 6 5 6 6 6 6 7 6 5 4 4 4 4 4 4 2 2 2 2 3 3 1 1
8 7 7 7 7 7 7 8 8 7 8 8 7 7 8 8 7 7 6 5 5 5 6 6 6 6 6 6 6 4 4 5 4 4 4 2 2 1 1 2 2 3 2
6 6 6 6 6 6 6 6 6 7 6 7 7 7 7 8 7 7 7 6 6 5 7 7 7 6 6 6 6 5 4 5 4 3 4 3 2 2 2 2 1 2 3
6 6 6 6 6 6 6 6 6 6 6 6 6 7 7 7 7 7 7 7 6 7 7 7 6 6 6 6 6 5 6 6 5 4 4 3 3 3 2 2 2 1 2
5 6 6 6 6 6 6 5 5 5 6 6 6 7 7 7 7 7 7 7 7 7 7 7 7 6 6 6 6 6 6 6 5 5 5 4 4 4 3 3 3 2 1
5 5 6 6 6 6 6 5 6 6 6 6 7 7 7 7 7 7 6 6 7 7 7 7 7 6 6 6 6 6 6 6 6 6 6 5 5 5 4 4 3 2 2
6 6 6 5 5 5 5 6 5 6 6 7 7 7 7 7 7 7 7 7 7 7 7 6 6 6 7 7 7 8 9 9 8 8 7 7 7 6 5 5 4 4 4
5 6 7 6 5 5 4 5 5 5 6 7 7 7 7 7 7 7 7 7 7 7 7 7 6 6 6 6 9 9 10 10 10 9 9 9 11 10 8 7 6 6 5
5 5 6 6 6 6 5 5 5 5 6 7 7 6 7 8 8 8 8 8 8 7 8 8 8 7 6 10 12 12 10 10 11 10 9 10 11 14 16 16 14 10 7
3 5 6 6 6 6 6 7 6 5 6 6 7 7 8 8 8 9 10 10 9 9 9 9 9 10 10 13 15 15 12 12 10 10 8 8 9 10 10 13 16 16 16
1 2 3 4 4 4 5 5 6 6 7 7 7 8 9 9 9 10 10 10 9 10 9 9 10 11 11 15 17 18 14 13 11 10 9 9 8 8 9 11 12 12 11
1 1 2 2 3 4 5 6 6 6 7 7 7 8 10 11 11 11 10 10 10 11 10 10 11 12 11 14 15 15 11 11 11 9 9 9 9 10 11 11 10 10 8
2 2 2 2 3 4 6 7 7 7 7 7 8 8 10 11 12 12 11 10 11 12 12 11 10 11 11 12 14 13 10 11 9 8 9 12 11 11 11 9 9 8 6
3 3 3 2 2 4 7 7 7 7 7 8 9 10 11 12 13 12 11 12 12 12 12 12 10 10 11 12 13 12 9 9 9 8 7 8 13 14 13 10 8 7 5
3 3 3 3 3 4 7 7 7 7 9 11 11 11 11 12 13 14 12 12 13 13 12 12 11 8 8 10 12 14 12 11 10 9 7 8 14 15 13 10 10 10 8
2 2 3 4 4 4 6 7 7 9 11 12 12 12 13 12 11 13 14 12 10 10 9 9 9 8 7 9 14 15 15 14 10 9 13 13 14 13 11 13 13 9 7
2 2 4 5 5 5 7 8 8 10 12 13 13 13 14 13 11 9 10 10 10 10 10 10 9 8 8 7 7 8 10 13 12 10 12 14 14 11 10 9 8 7 6
3 4 5 6 6 7 8 9 9 12 13 13 13 13 13 14 13 11 9 9 8 8 11 9 9 10 8 6 8 9 8 8 8 8 7 7 6 7 6 6 6 5 5
4 6 7 7 8 9 9 9 9 12 15 13 12 11 12 12 12 13 13 17 14 16 15 13 11 9 10 12 14 14 14 13 12 9 7 6 5 5 4 4 4 4 4
Wind_Direction
180 168 172 175 171 170 172 172 171 169 161 166 171 174 182 177 176 181 182 178 175 173 165 160 153 157 161 166 154 128 120 110 121 101 65 27 23 243 238 228 222 221 221
173 175 174 177 178 179 176 172 170 173 176 180 177 167 151 161 172 171 172 175 171 170 167 156 158 158 150 147 152 137 126 113 122 127 111 46 352 340 278 235 227 230 226
186 183 185 189 184 183 179 179 175 176 179 175 157 138 118 104 136 164 170 174 169 167 162 163 158 160 159 163 166 155 144 141 121 123 140 148 211 282 317 276 243 231 225
188 187 190 190 188 187 180 177 178 176 179 177 173 171 175 179 187 174 169 161 163 164 165 163 160 159 156 159 168 162 148 141 147 124 86 128 150 149 322 326 295 251 237
189 191 192 191 188 179 177 178 174 175 177 178 179 178 177 176 161 152 153 155 156 165 166 162 158 154 153 158 157 153 149 147 152 155 145 121 88 103 140 263 319 304 260
183 180 177 164 162 164 166 165 168 177 179 180 180 179 174 168 162 164 167 165 158 158 163 157 154 154 154 159 162 157 150 147 142 145 149 151 152 165 157 179 246 287 309
174 167 165 163 162 163 167 165 168 177 179 181 182 180 177 173 175 175 174 168 168 172 175 159 155 157 158 158 152 149 149 149 147 150 149 150 159 152 152 154 176 269 319
172 174 175 169 168 167 168 170 173 177 178 182 184 181 176 172 174 175 170 173 178 178 169 160 160 161 158 155 148 142 148 148 148 148 140 134 142 156 164 159 151 136 350
175 175 171 164 163 165 171 176 174 172 175 181 179 177 171 166 170 170 164 166 169 167 160 160 159 158 156 152 148 145 148 144 141 141 137 126 122 128 149 155 160 156 176
175 173 170 165 160 159 162 164 167 171 175 176 178 178 172 166 165 164 167 168 166 157 152 157 160 158 154 153 147 145 146 139 134 134 129 118 111 108 111 133 144 157 165
175 166 162 158 149 148 154 159 159 156 163 170 169 164 165 161 161 166 170 167 161 158 158 160 158 157 155 154 150 150 147 138 128 126 124 112 104 97 83 82 89 97 140
168 164 158 147 147 149 151 157 158 159 162 158 156 159 155 154 159 164 165 159 155 155 155 151 150 153 153 154 154 151 144 139 131 122 114 105 101 91 81 82 79 75 94
151 151 151 152 154 155 159 161 164 168 162 154 154 156 156 157 160 159 154 149 144 140 140 144 148 146 142 139 139 136 127 118 111 108 106 100 100 89 79 75 72 62 68
158 158 160 162 164 167 167 166 168 167 164 160 159 162 164 161 156 150 145 142 137 134 134 139 142 140 134 129 125 120 115 108 98 93 91 88 90 91 85 74 62 63 64
155 164 166 165 165 168 167 164 166 165 163 160 165 168 162 154 148 143 138 133 131 134 131 126 119 116 118 125 125 120 116 109 100 90 86 84 85 83 80 79 68 67 68
163 170 165 168 173 174 173 167 168 167 160 162 165 158 154 151 146 141 133 124 118 116 113 111 108 102 105 113 117 117 110 105 101 93 84 79 74 78 76 74 70 68 70
147 167 175 180 183 181 176 174 168 159 155 154 152 152 153 147 142 134 123 121 115 109 104 104 103 99 97 103 106 108 107 101 96 92 88 83 75 76 80 75 69 63 62
129 160 173 177 178 173 171 164 153 156 158 154 149 144 140 134 127 123 120 117 113 111 106 102 101 99 96 99 102 102 99 95 90 87 87 87 77 78 87 84 75 67 59
99 161 164 167 163 166 162 153 152 153 153 152 148 144 140 134 130 126 122 118 113 107 102 101 102 102 99 98 103 104 101 95 86 80 78 83 81 80 86 86 81 70 56
63 77 99 112 146 159 149 147 151 151 156 152 145 137 133 130 128 125 120 114 111 108 103 96 94 99 98 93 97 102 106 101 94 83 77 77 82 78 78 82 81 74 55
60 75 95 107 135 144 144 147 147 153 144 129 125 123 121 122 121 117 116 115 111 106 102 97 89 88 92 90 93 100 109 113 105 94 83 76 81 79 76 76 77 79 73
53 74 89 88 97 128 141 144 147 140 126 122 119 117 117 120 121 119 114 111 111 108 105 101 90 79 78 85 90 91 95 104 103 99 94 89 85 81 75 74 72 70 65
60 73 91 89 83 100 129 135 131 124 122 118 115 113 109 109 115 118 117 112 107 108 110 107 103 93 84 80 80 86 91 93 96 98 99 92 85 78 71 67 65 60 56
80 94 99 97 91 93 101 111 115 118 117 115 113 112 109 105 101 103 109 113 114 113 111 110 109 104 95 91 91 92 93 91 94 95 90 83 75 72 67 62 57 54 54
89 102 108 109 101 98 99 104 112 115 112 110 110 109 108 109 101 89 84 96 94 117 121 119 119 116 107 102 110 112 106 107 109 104 88 78 73 69 63 59 54 48 43
99 104 102 102 102 102 100 102 109 114 113 110 108 108 110 110 109 104 88 68 82 87 90 99 107 98 109 115 108 105 105 106 109 98 92 86 81 78 71 64 51 39 30
Height
1485 1488 1490 1493 1496 1499 1501 1504 1509 1513 1517 1522 1526 1530 1534 1538 1541 1544 1547 1549 1551 1553 1555 1557 1559 1560 1562 1564 1565 1566 1567 1569 1570 1571 1572 1573 1574 1575 1576 1577 1578 1579 1580
1483 1486 1489 1492 1494 1497 1499 1503 1505 1509 1514 1519 1523 1528 1532 1536 1540 1542 1545 1547 1550 1552 1554 1556 1558 1559 1561 1562 1564 1565 1566 1568 1569 1570 1572 1573 1575 1574 1575 1576 1577 1578 1579
1482 1484 1487 1489 1491 1494 1497 1501 1504 1508 1512 1517 1521 1526 1530 1534 1538 1541 1543 1545 1548 1550 1553 1554 1556 1558 1560 1561 1563 1564 1565 1567 1568 1570 1571 1572 1573 1573 1575 1575 1576 1577 1578
1481 1483 1485 1487 1489 1492 1495 1499 1501 1505 1509 1514 1518 1522 1526 1530 1534 1537 1541 1544 1546 1549 1551 1553 1555 1557 1558 1560 1562 1563 1565 1566 1567 1569 1570 1572 1572 1573 1573 1575 1575 1576 1577
1480 1482 1484 1485 1487 1490 1493 1496 1499 1503 1507 1511 1515 1519 1524 1528 1532 1535 1538 1541 1544 1547 1549 1551 1553 1555 1557 1559 1561 1562 1564 1565 1566 1568 1569 1570 1571 1572 1573 1574 1575 1575 1576
1478 1481 1483 1484 1486 1488 1491 1494 1498 1501 1505 1509 1513 1517 1521 1525 1529 1532 1535 1538 1541 1544 1547 1549 1551 1553 1555 1557 1559 1561 1562 1564 1565 1567 1568 1569 1571 1571 1572 1573 1574 1574 1575
1477 1479 1481 1483 1485 1487 1490 1493 1497 1500 1503 1507 1510 1514 1518 1522 1526 1529 1532 1536 1539 1542 1544 1547 1549 1551 1554 1556 1558 1559 1561 1563 1564 1566 1567 1568 1569 1570 1571 1572 1572 1573 1574
1476 1478 1480 1481 1484 1486 1489 1492 1495 1498 1501 1505 1508 1512 1515 1519 1523 1526 1530 1534 1537 1540 1542 1545 1547 1550 1552 1554 1556 1558 1559 1561 1563 1564 1565 1567 1568 1569 1570 1571 1571 1571 1572
1474 1476 1479 1481 1482 1485 1488 1491 1493 1496 1499 1502 1506 1509 1512 1516 1519 1524 1528 1532 1535 1538 1540 1543 1546 1548 1550 1552 1554 1556 1558 1559 1561 1562 1563 1565 1566 1567 1568 1569 1569 1570 1570
1474 1476 1478 1480 1482 1484 1487 1490 1492 1494 1497 1501 1504 1507 1510 1513 1517 1522 1526 1529 1533 1536 1538 1541 1544 1546 1548 1551 1553 1555 1556 1558 1559 1560 1561 1563 1564 1565 1565 1566 1567 1567 1568
1472 1475 1477 1479 1482 1484 1486 1489 1491 1493 1496 1499 1502 1505 1508 1512 1515 1519 1523 1527 1531 1533 1536 1539 1542 1545 1547 1549 1551 1553 1555 1556 1558 1559 1560 1561 1562 1562 1563 1564 1564 1564 1565
1472 1474 1476 1479 1481 1484 1486 1488 1490 1492 1495 1498 1501 1504 1507 1510 1514 1518 1521 1525 1529 1532 1534 1537 1540 1543 1545 1548 1550 1552 1553 1555 1556 1557 1558 1559 1560 1560 1561 1561 1561 1562 1561
1471 1474 1476 1478 1481 1483 1485 1487 1489 1492 1494 1497 1500 1502 1506 1509 1513 1516 1520 1523 1527 1530 1533 1536 1538 1541 1543 1546 1548 1550 1551 1553 1554 1555 1556 1557 1558 1558 1558 1559 1559 1559 1559
1471 1473 1475 1478 1480 1482 1485 1486 1488 1491 1493 1496 1498 1501 1504 1507 1511 1515 1518 1522 1525 1528 1531 1534 1537 1539 1541 1543 1545 1547 1549 1550 1552 1553 1554 1555 1556 1556 1556 1556 1556 1556 1556
1469 1472 1474 1477 1479 1482 1484 1486 1488 1490 1492 1494 1497 1499 1502 1505 1509 1513 1516 1520 1523 1526 1529 1532 1535 1537 1539 1541 1543 1545 1547 1548 1549 1550 1552 1553 1553 1554 1554 1554 1554 1554 1554
1468 1470 1473 1475 1478 1480 1482 1484 1486 1488 1491 1493 1495 1498 1501 1504 1507 1511 1515 1518 1522 1525 1527 1530 1533 1535 1537 1539 1541 1544 1545 1546 1547 1549 1550 1551 1552 1552 1552 1553 1553 1552 1552
1467 1469 1471 1473 1476 1478 1480 1483 1485 1487 1489 1492 1494 1497 1500 1503 1507 1510 1513 1517 1520 1523 1526 1529 1531 1534 1536 1538 1540 1542 1544 1545 1546 1548 1549 1550 1551 1551 1551 1551 1551 1551 1550
1467 1469 1470 1472 1474 1477 1479 1481 1483 1486 1488 1490 1493 1496 1499 1502 1506 1509 1512 1515 1519 1522 1524 1527 1530 1532 1535 1537 1540 1542 1543 1544 1546 1547 1549 1550 1550 1550 1551 1551 1550 1550 1549
1466 1468 1469 1471 1473 1475 1477 1479 1482 1484 1486 1489 1492 1495 1498 1501 1505 1508 1511 1514 1517 1520 1523 1526 1529 1531 1534 1537 1539 1541 1543 1544 1546 1547 1549 1550 1550 1550 1551 1550 1550 1549 1549
1466 1467 1468 1469 1471 1472 1475 1477 1479 1482 1485 1487 1491 1494 1497 1500 1504 1507 1510 1513 1516 1518 1521 1525 1528 1531 1533 1536 1539 1542 1543 1544 1546 1547 1549 1550 1550 1551 1550 1550 1550 1549 1549
1466 1466 1467 1468 1469 1471 1472 1475 1477 1480 1483 1487 1490 1493 1496 1500 1503 1506 1509 1511 1514 1517 1520 1524 1527 1530 1533 1536 1539 1541 1543 1544 1545 1547 1548 1549 1550 1550 1550 1550 1549 1548 1548
1465 1466 1466 1467 1467 1469 1471 1473 1476 1479 1482 1485 1489 1492 1496 1499 1502 1505 1508 1511 1514 1517 1520 1523 1527 1530 1533 1536 1539 1541 1543 1544 1545 1547 1548 1549 1550 1550 1550 1549 1549 1548 1547
1464 1465 1465 1466 1467 1468 1470 1472 1475 1478 1481 1484 1487 1491 1495 1499 1502 1505 1508 1511 1514 1517 1520 1524 1527 1530 1533 1536 1539 1541 1543 1545 1546 1547 1549 1550 1550 1550 1550 1549 1548 1547 1546
1463 1464 1464 1465 1467 1468 1470 1472 1474 1477 1480 1483 1487 1491 1495 1499 1503 1506 1509 1511 1515 1518 1521 1524 1528 1531 1534 1537 1540 1542 1544 1545 1546 1548 1549 1550 1550 1550 1550 1549 1548 1547 1545
1462 1463 1464 1465 1466 1468 1470 1473 1475 1478 1481 1484 1487 1491 1495 1499 1503 1508 1511 1514 1518 1521 1524 1527 1530 1533 1535 1538 1541 1543 1545 1546 1548 1549 1550 1550 1551 1551 1550 1548 1547 1547 1545
1462 1463 1464 1465 1467 1469 1471 1474 1476 1479 1481 1485 1489 1492 1496 1501 1504 1509 1513 1518 1521 1525 1528 1531 1534 1536 1539 1540 1543 1545 1546 1548 1549 1550 1550 1550 1550 1550 1550 1549 1548 1546 1545